Temp
-6 -7 -7 -7 -7 -8 -8 -7 -8 -6 -7 -7 -5 -6 -6 -6 -6 -6 -5 -6 -5 -5 -5 -5 -6 -6 -6 -6 -6 -6 -6 -6 -6 -6 -6 -7 -7 -7 -7 -7 -7 -7 -8 -8 -7 -8 -8 -7 -7
-6 -6 -6 -7 -8 -7 -7 -6 -6 -5 -5 -6 -5 -5 -5 -5 -5 -5 -5 -5 -5 -5 -5 -5 -5 -6 -6 -6 -6 -6 -6 -6 -6 -6 -7 -7 -7 -7 -7 -7 -7 -7 -7 -7 -8 -8 -8 -7 -7
-7 -7 -8 -8 -7 -8 -8 -6 -6 -5 -5 -5 -5 -5 -5 -5 -5 -5 -5 -5 -5 -5 -5 -6 -6 -6 -6 -6 -6 -6 -6 -6 -6 -7 -7 -7 -7 -7 -7 -7 -7 -7 -8 -7 -8 -8 -8 -8 -8
-7 -6 -7 -7 -6 -8 -7 -6 -5 -5 -5 -5 -5 -5 -5 -5 -5 -5 -5 -5 -5 -5 -6 -5 -5 -5 -5 -5 -6 -6 -6 -7 -7 -7 -7 -7 -7 -7 -7 -8 -8 -8 -8 -8 -8 -8 -8 -8 -8
-7 -6 -7 -7 -8 -8 -8 -7 -6 -6 -5 -5 -5 -5 -5 -5 -5 -5 -6 -6 -6 -6 -6 -6 -6 -6 -6 -6 -6 -7 -7 -7 -7 -7 -7 -7 -7 -7 -7 -8 -8 -8 -8 -8 -8 -8 -8 -8 -8
-6 -7 -7 -7 -8 -8 -9 -7 -6 -5 -5 -5 -5 -5 -6 -6 -6 -6 -6 -6 -6 -6 -6 -6 -6 -7 -7 -7 -7 -7 -7 -7 -7 -7 -7 -7 -8 -8 -8 -8 -8 -8 -8 -8 -8 -8 -8 -8 -8
-5 -5 -6 -6 -6 -6 -6 -7 -5 -5 -5 -5 -5 -6 -6 -7 -6 -6 -6 -7 -7 -7 -7 -7 -7 -7 -7 -7 -7 -7 -7 -7 -7 -7 -7 -8 -7 -8 -8 -8 -8 -8 -8 -8 -9 -8 -8 -8 -8
-7 -6 -6 -7 -7 -6 -7 -7 -5 -5 -6 -5 -5 -5 -6 -7 -7 -7 -7 -7 -7 -7 -8 -8 -8 -8 -8 -8 -8 -8 -8 -8 -8 -8 -8 -8 -8 -8 -8 -8 -8 -8 -8 -8 -9 -8 -8 -8 -8
-7 -6 -7 -6 -6 -7 -8 -6 -6 -5 -5 -6 -6 -5 -6 -7 -7 -8 -8 -8 -9 -9 -9 -9 -9 -9 -9 -9 -9 -9 -9 -9 -9 -9 -9 -8 -8 -7 -8 -9 -9 -9 -8 -9 -9 -9 -8 -8 -8
-7 -7 -7 -6 -7 -7 -7 -7 -7 -7 -5 -5 -6 -6 -6 -7 -8 -8 -8 -9 -9 -9 -9 -9 -9 -9 -9 -9 -9 -9 -9 -9 -9 -9 -9 -9 -8 -8 -9 -9 -9 -9 -9 -9 -9 -9 -9 -8 -8
-7 -7 -7 -6 -7 -7 -7 -7 -7 -5 -6 -6 -6 -6 -6 -7 -7 -8 -9 -9 -9 -9 -9 -9 -9 -9 -9 -9 -9 -10 -9 -9 -9 -9 -9 -9 -9 -10 -9 -9 -9 -9 -9 -10 -9 -9 -9 -9 -8
-7 -7 -7 -5 -6 -7 -8 -7 -5 -7 -5 -6 -6 -6 -6 -6 -7 -8 -9 -9 -9 -9 -9 -9 -9 -9 -9 -9 -9 -9 -9 -9 -9 -9 -9 -9 -9 -9 -9 -9 -9 -9 -9 -9 -9 -9 -9 -9 -9
-7 -7 -7 -6 -7 -7 -5 -5 -5 -5 -5 -6 -5 -5 -6 -6 -7 -8 -8 -9 -9 -9 -9 -9 -9 -9 -9 -9 -9 -9 -8 -8 -9 -9 -9 -9 -9 -9 -9 -8 -9 -9 -9 -9 -9 -9 -9 -9 -9
-7 -7 -8 -8 -6 -7 -5 -5 -5 -5 -5 -6 -6 -6 -6 -6 -7 -7 -8 -8 -8 -8 -9 -9 -9 -9 -8 -8 -8 -8 -8 -8 -8 -8 -8 -8 -8 -8 -8 -9 -9 -9 -9 -8 -8 -8 -8 -9 -9
-8 -7 -8 -7 -7 -6 -5 -5 -5 -5 -5 -5 -5 -6 -6 -6 -6 -6 -7 -7 -7 -7 -7 -8 -7 -7 -7 -7 -7 -7 -7 -7 -7 -7 -8 -8 -8 -8 -8 -8 -8 -8 -8 -8 -8 -8 -8 -8 -8
-8 -7 -7 -7 -6 -7 -7 -5 -5 -5 -5 -5 -5 -6 -6 -6 -6 -6 -7 -6 -7 -7 -7 -7 -7 -7 -7 -7 -7 -7 -7 -7 -8 -8 -8 -8 -8 -8 -8 -8 -8 -8 -8 -8 -8 -8 -8 -8 -8
-7 -7 -6 -7 -6 -6 -5 -5 -5 -5 -5 -5 -6 -6 -6 -6 -6 -6 -6 -7 -7 -7 -7 -7 -7 -7 -7 -7 -7 -7 -7 -7 -7 -7 -7 -7 -7 -7 -7 -7 -7 -8 -8 -8 -8 -8 -8 -8 -8
-6 -6 -7 -6 -6 -6 -6 -6 -6 -5 -6 -6 -5 -6 -6 -6 -6 -6 -6 -6 -7 -7 -7 -7 -7 -7 -7 -7 -7 -7 -7 -7 -7 -7 -7 -7 -7 -7 -7 -7 -7 -7 -7 -7 -8 -8 -8 -9 -9
-6 -6 -6 -6 -7 -6 -6 -7 -6 -6 -6 -6 -6 -6 -6 -7 -6 -6 -6 -6 -6 -6 -6 -7 -7 -7 -7 -7 -7 -7 -7 -7 -7 -7 -7 -7 -7 -7 -7 -7 -7 -7 -7 -7 -8 -8 -8 -8 -8
-6 -6 -6 -7 -7 -7 -6 -6 -6 -6 -6 -6 -6 -6 -6 -6 -7 -6 -7 -6 -7 -7 -7 -7 -7 -7 -7 -7 -6 -7 -6 -7 -7 -7 -7 -7 -7 -7 -7 -7 -7 -7 -7 -7 -8 -8 -8 -8 -8
-6 -6 -6 -7 -7 -7 -7 -7 -6 -8 -7 -6 -6 -6 -6 -6 -6 -7 -7 -7 -7 -7 -7 -7 -7 -7 -6 -6 -6 -7 -6 -6 -6 -7 -7 -7 -7 -7 -7 -7 -7 -7 -7 -7 -7 -8 -8 -8 -8
-7 -7 -6 -6 -7 -7 -7 -6 -7 -6 -7 -6 -7 -6 -6 -6 -6 -6 -7 -7 -7 -7 -7 -7 -7 -7 -7 -6 -6 -6 -6 -6 -6 -6 -7 -7 -7 -7 -7 -7 -7 -7 -7 -7 -7 -8 -8 -9 -8
-7 -7 -7 -6 -7 -7 -7 -7 -7 -7 -6 -7 -6 -6 -6 -6 -6 -6 -7 -7 -7 -7 -7 -7 -7 -7 -7 -6 -6 -6 -6 -6 -6 -7 -7 -7 -7 -7 -7 -7 -7 -7 -7 -8 -8 -8 -8 -9 -9
-7 -7 -7 -7 -7 -7 -7 -7 -7 -7 -7 -6 -7 -7 -7 -7 -7 -6 -6 -7 -7 -7 -7 -7 -6 -6 -6 -7 -7 -7 -6 -6 -6 -7 -7 -7 -7 -7 -7 -7 -7 -8 -8 -8 -8 -8 -8 -9 -9
-7 -7 -7 -7 -7 -7 -6 -7 -6 -7 -6 -7 -7 -6 -8 -7 -7 -7 -7 -6 -7 -7 -6 -7 -7 -6 -6 -6 -6 -6 -6 -7 -7 -7 -7 -7 -7 -7 -7 -7 -8 -8 -8 -8 -8 -9 -9 -9 -9
-7 -7 -7 -7 -6 -6 -7 -7 -6 -7 -8 -8 -8 -8 -8 -8 -8 -8 -8 -7 -7 -7 -7 -7 -7 -7 -6 -6 -7 -7 -7 -7 -7 -7 -7 -7 -7 -7 -8 -8 -8 -8 -8 -8 -9 -9 -9 -9 -10
-7 -7 -7 -6 -6 -6 -6 -7 -7 -7 -7 -7 -8 -8 -8 -8 -7 -7 -7 -7 -7 -7 -8 -7 -7 -7 -7 -7 -7 -7 -8 -8 -8 -7 -8 -8 -8 -8 -8 -8 -8 -8 -9 -9 -9 -9 -10 -10 -10
-7 -7 -7 -7 -6 -6 -6 -6 -7 -7 -7 -7 -7 -7 -8 -9 -8 -7 -7 -7 -6 -7 -7 -7 -7 -7 -7 -7 -7 -7 -8 -8 -8 -8 -8 -8 -8 -8 -8 -8 -8 -9 -9 -9 -9 -9 -10 -10 -10
-7 -7 -7 -7 -7 -6 -6 -6 -7 -8 -8 -8 -8 -8 -8 -8 -9 -8 -8 -7 -7 -7 -7 -8 -8 -8 -8 -8 -8 -8 -8 -8 -8 -8 -8 -8 -8 -8 -8 -8 -9 -9 -9 -9 -10 -10 -10 -11 -11
-7 -7 -8 -7 -7 -7 -7 -7 -8 -8 -8 -8 -8 -8 -8 -8 -8 -8 -8 -8 -7 -7 -7 -7 -8 -8 -8 -8 -8 -8 -9 -8 -8 -8 -8 -8 -8 -8 -8 -9 -9 -9 -9 -10 -10 -10 -11 -11 -12
Height
5903 5901 5901 5898 5899 5904 5899 5900 5900 5900 5899 5897 5887 5895 5894 5889 5895 5902 5898 5898 5898 5901 5902 5903 5904 5905 5906 5907 5908 5908 5908 5909 5910 5909 5912 5913 5913 5912 5912 5913 5914 5914 5914 5914 5914 5914 5913 5914 5914
5904 5905 5904 5902 5914 5905 5901 5901 5902 5903 5902 5901 5898 5897 5899 5897 5899 5903 5902 5902 5903 5905 5907 5907 5908 5909 5910 5910 5910 5912 5912 5912 5912 5913 5915 5915 5915 5915 5915 5916 5916 5916 5915 5914 5915 5915 5915 5915 5916
5907 5907 5908 5913 5910 5907 5904 5904 5904 5904 5904 5904 5903 5901 5903 5905 5904 5905 5905 5905 5906 5908 5910 5909 5910 5912 5913 5914 5914 5913 5913 5914 5914 5916 5917 5916 5916 5917 5917 5917 5916 5915 5915 5915 5916 5916 5917 5917 5918
5909 5905 5908 5916 5912 5910 5908 5907 5907 5906 5905 5906 5905 5905 5905 5906 5907 5907 5908 5908 5910 5911 5912 5912 5913 5915 5915 5916 5916 5915 5916 5916 5916 5917 5917 5918 5918 5918 5917 5917 5917 5917 5917 5917 5917 5918 5919 5919 5920
5907 5907 5917 5915 5915 5915 5914 5910 5909 5909 5908 5908 5907 5908 5907 5907 5908 5909 5910 5910 5912 5912 5913 5915 5915 5916 5917 5917 5917 5917 5918 5918 5919 5919 5919 5920 5919 5918 5917 5918 5918 5918 5918 5918 5918 5919 5920 5921 5920
5912 5901 5920 5918 5918 5918 5916 5913 5912 5911 5910 5910 5909 5909 5910 5910 5911 5912 5912 5913 5914 5915 5916 5917 5918 5919 5920 5920 5920 5920 5921 5921 5921 5922 5921 5921 5919 5919 5920 5919 5919 5920 5921 5919 5919 5920 5921 5921 5921
5911 5903 5920 5920 5915 5921 5915 5915 5914 5913 5912 5912 5912 5912 5913 5913 5914 5915 5915 5915 5916 5917 5919 5920 5921 5922 5922 5923 5923 5923 5924 5924 5924 5924 5923 5921 5920 5921 5921 5922 5921 5920 5921 5921 5919 5920 5921 5922 5922
5919 5920 5926 5924 5923 5923 5920 5920 5917 5915 5915 5914 5915 5914 5915 5915 5916 5917 5917 5918 5919 5920 5922 5922 5923 5924 5924 5925 5926 5926 5926 5927 5927 5926 5924 5922 5923 5923 5924 5925 5925 5924 5921 5922 5920 5921 5921 5922 5921
5914 5916 5930 5925 5929 5926 5926 5924 5921 5919 5917 5916 5916 5916 5917 5916 5917 5917 5919 5920 5921 5922 5922 5923 5924 5925 5926 5926 5927 5927 5927 5928 5928 5927 5925 5923 5923 5925 5923 5923 5924 5926 5923 5922 5920 5921 5920 5922 5921
5932 5931 5933 5932 5933 5928 5926 5928 5925 5923 5920 5919 5919 5919 5919 5919 5920 5920 5921 5922 5923 5923 5924 5925 5926 5926 5925 5926 5927 5928 5928 5928 5928 5927 5925 5924 5923 5920 5924 5925 5925 5924 5922 5921 5919 5920 5919 5920 5921
5933 5934 5934 5934 5933 5930 5930 5924 5926 5907 5922 5921 5921 5921 5922 5922 5922 5923 5923 5924 5925 5926 5926 5927 5927 5927 5926 5927 5927 5928 5928 5928 5927 5927 5926 5923 5920 5912 5918 5924 5922 5921 5918 5918 5917 5917 5918 5918 5917
5935 5934 5931 5933 5930 5929 5928 5923 5924 5921 5922 5921 5923 5923 5924 5923 5923 5924 5924 5925 5926 5926 5927 5927 5928 5927 5927 5927 5927 5928 5927 5927 5926 5926 5926 5924 5923 5921 5920 5918 5918 5917 5917 5915 5916 5916 5916 5915 5914
5936 5932 5931 5930 5928 5927 5927 5928 5923 5922 5923 5923 5925 5924 5925 5924 5924 5925 5925 5926 5926 5927 5927 5927 5928 5927 5927 5928 5927 5927 5926 5926 5926 5925 5924 5923 5922 5920 5918 5916 5915 5915 5915 5915 5914 5912 5912 5911 5911
5933 5933 5931 5932 5929 5927 5926 5925 5925 5925 5924 5925 5925 5926 5926 5926 5926 5925 5925 5925 5926 5926 5927 5927 5927 5927 5927 5927 5926 5926 5925 5925 5925 5924 5924 5922 5922 5920 5919 5917 5915 5913 5912 5910 5910 5909 5908 5907 5906
5930 5932 5933 5931 5928 5929 5928 5927 5926 5926 5925 5926 5928 5928 5928 5927 5926 5926 5926 5926 5926 5926 5926 5926 5927 5927 5927 5927 5926 5925 5925 5925 5924 5923 5922 5921 5919 5919 5917 5915 5912 5911 5909 5907 5906 5904 5902 5901 5901
5931 5934 5934 5932 5930 5931 5929 5928 5930 5930 5929 5928 5929 5929 5928 5928 5927 5927 5927 5927 5927 5927 5927 5927 5927 5927 5927 5926 5926 5925 5925 5924 5923 5922 5920 5919 5917 5916 5913 5910 5908 5907 5905 5903 5901 5900 5899 5897 5896
5931 5935 5933 5931 5930 5932 5932 5930 5932 5931 5931 5929 5928 5928 5928 5929 5929 5929 5928 5927 5927 5927 5927 5927 5927 5927 5926 5926 5926 5925 5924 5923 5922 5919 5919 5917 5914 5913 5911 5908 5906 5904 5902 5899 5898 5897 5895 5894 5892
5932 5932 5932 5932 5933 5930 5930 5928 5931 5930 5929 5928 5927 5928 5928 5929 5929 5929 5927 5928 5927 5926 5926 5926 5925 5924 5925 5924 5924 5923 5923 5921 5920 5918 5916 5914 5912 5911 5910 5907 5905 5902 5899 5896 5894 5892 5889 5888 5887
5936 5938 5930 5932 5928 5929 5927 5930 5929 5926 5927 5927 5927 5927 5927 5928 5928 5928 5929 5928 5927 5926 5925 5925 5924 5924 5923 5922 5922 5921 5920 5918 5917 5915 5914 5912 5910 5908 5906 5904 5901 5898 5896 5893 5890 5887 5885 5882 5879
5934 5937 5937 5936 5933 5934 5925 5923 5923 5924 5926 5926 5925 5926 5926 5926 5927 5928 5927 5927 5926 5925 5925 5925 5924 5923 5922 5922 5920 5919 5917 5915 5913 5911 5910 5909 5907 5904 5902 5900 5898 5896 5893 5889 5886 5882 5879 5876 5872
5928 5931 5936 5936 5934 5932 5933 5923 5923 5923 5925 5926 5925 5924 5924 5925 5926 5926 5926 5925 5925 5925 5925 5925 5924 5923 5922 5921 5919 5917 5916 5913 5911 5909 5907 5905 5902 5900 5898 5895 5893 5890 5887 5884 5881 5876 5873 5870 5865
5923 5925 5929 5934 5931 5931 5927 5927 5921 5919 5922 5925 5924 5924 5922 5923 5923 5923 5924 5925 5925 5925 5925 5924 5923 5922 5921 5919 5918 5916 5914 5912 5910 5907 5904 5901 5899 5896 5893 5891 5888 5885 5883 5879 5876 5872 5867 5864 5860
5918 5922 5924 5928 5929 5929 5929 5924 5918 5918 5918 5922 5922 5923 5921 5920 5921 5921 5922 5922 5923 5923 5923 5922 5921 5920 5918 5917 5916 5913 5911 5909 5906 5903 5900 5898 5896 5893 5890 5887 5884 5880 5877 5873 5869 5865 5860 5856 5852
5914 5917 5922 5923 5923 5922 5925 5925 5921 5914 5915 5918 5916 5916 5917 5917 5918 5918 5919 5920 5920 5920 5920 5919 5918 5917 5916 5914 5912 5909 5907 5905 5903 5901 5898 5895 5892 5890 5887 5883 5879 5875 5871 5868 5863 5859 5854 5849 5845
5911 5913 5917 5919 5918 5918 5921 5921 5918 5916 5914 5912 5909 5909 5912 5914 5914 5915 5915 5916 5916 5916 5916 5916 5914 5913 5912 5910 5908 5906 5904 5901 5898 5896 5893 5889 5886 5883 5880 5877 5873 5869 5866 5861 5856 5852 5848 5843 5838
5907 5909 5913 5914 5917 5917 5916 5914 5916 5916 5912 5904 5903 5906 5910 5913 5912 5912 5911 5911 5913 5912 5911 5911 5909 5908 5907 5905 5903 5901 5897 5896 5893 5890 5887 5884 5881 5877 5874 5870 5866 5863 5859 5854 5848 5844 5840 5834 5830
5901 5902 5911 5914 5915 5916 5915 5912 5911 5911 5910 5911 5909 5912 5909 5906 5908 5907 5905 5904 5907 5906 5905 5906 5903 5902 5901 5900 5898 5896 5894 5890 5886 5884 5881 5877 5874 5871 5867 5863 5859 5854 5849 5845 5840 5836 5832 5826 5821
5898 5901 5903 5906 5910 5910 5913 5911 5907 5903 5901 5902 5905 5905 5906 5902 5900 5902 5899 5897 5902 5901 5900 5899 5897 5896 5893 5893 5891 5890 5888 5885 5881 5878 5874 5871 5867 5863 5859 5855 5852 5847 5842 5837 5832 5827 5823 5816 5812
5896 5897 5900 5904 5906 5908 5910 5904 5901 5899 5899 5898 5898 5898 5900 5901 5897 5899 5897 5893 5895 5895 5895 5893 5891 5889 5886 5885 5883 5881 5879 5877 5875 5871 5867 5863 5859 5855 5851 5846 5842 5837 5833 5827 5821 5816 5810 5805 5800
5892 5893 5895 5897 5901 5900 5901 5903 5896 5893 5893 5892 5891 5894 5895 5896 5894 5893 5893 5889 5890 5889 5887 5887 5885 5883 5880 5878 5876 5874 5872 5869 5866 5862 5859 5854 5850 5846 5842 5837 5832 5828 5822 5817 5812 5805 5799 5794 5788
Wind_Speed
30 32 31 31 30 7 12 19 8 15 12 9 2 1 7 17 20 13 14 15 16 14 13 13 15 16 16 18 18 17 17 15 13 12 11 11 10 9 8 6 5 5 7 7 6 6 5 6 7
32 30 29 32 9 3 11 12 12 12 11 8 5 11 11 15 18 13 14 14 14 12 12 13 13 13 13 13 14 14 13 13 11 10 9 9 8 6 5 3 3 5 6 7 6 5 7 7 8
32 30 29 17 12 3 14 12 11 11 13 12 9 11 12 12 14 13 14 12 14 13 11 12 11 10 9 9 9 9 8 7 8 7 7 7 7 5 4 4 3 3 4 5 4 4 7 9 9
23 31 29 9 11 4 16 11 11 12 14 15 16 12 14 11 10 12 13 13 12 11 11 10 8 6 5 4 5 5 5 5 5 5 6 5 4 4 3 2 1 4 4 3 3 4 7 9 9
16 35 17 6 12 9 9 6 14 12 13 13 14 12 14 11 10 9 10 10 9 9 8 8 7 5 3 2 1 2 2 2 2 2 2 2 2 1 1 2 3 3 5 4 2 1 3 7 9
24 34 18 11 11 12 5 8 9 12 14 16 17 18 16 14 13 10 10 10 9 8 8 7 6 3 2 1 1 0 2 3 4 4 3 4 4 3 2 2 3 4 4 4 2 2 1 6 8
21 29 9 4 8 5 11 4 11 12 14 15 16 19 19 17 15 14 12 12 11 11 10 8 8 7 6 4 3 3 3 4 4 4 4 6 7 7 7 7 6 3 3 5 4 3 4 4 6
23 22 9 13 7 10 9 6 9 13 13 15 15 16 16 16 16 15 13 14 11 10 9 9 10 9 9 8 7 7 6 6 7 7 6 7 8 10 10 10 12 13 7 6 7 7 7 7 8
21 8 3 6 7 7 6 7 1 10 12 12 10 12 11 13 14 13 13 13 11 11 10 9 6 7 6 7 4 4 3 2 3 6 8 10 11 9 9 11 12 15 13 11 8 9 11 9 11
6 4 5 1 7 9 11 1 6 5 8 9 8 8 9 10 10 10 10 9 11 9 9 8 10 10 6 9 11 13 9 6 5 7 10 13 13 7 11 12 12 13 12 12 12 12 14 14 15
4 10 7 3 10 6 3 7 12 14 8 6 6 6 7 8 8 8 8 8 10 11 11 10 8 11 10 6 12 12 12 14 13 13 13 10 16 16 14 16 16 16 18 16 17 15 15 17 18
4 8 11 18 16 18 16 14 5 7 5 8 5 5 5 7 7 7 5 6 6 5 5 7 8 9 9 11 13 13 15 14 14 15 16 16 15 17 17 18 17 18 18 20 19 18 18 18 17
4 9 11 6 8 8 6 5 1 6 4 3 2 3 3 4 5 6 5 3 3 1 2 4 7 10 12 13 11 13 12 13 13 15 16 18 18 19 20 22 22 22 23 21 22 23 22 21 21
13 4 13 11 6 7 3 0 3 4 4 3 1 1 2 3 4 4 3 3 3 2 2 4 6 8 10 10 11 11 11 14 13 14 14 16 17 18 17 21 23 22 22 22 23 23 24 25 25
10 12 13 4 3 7 1 1 1 2 3 4 3 2 1 2 3 3 4 3 1 1 0 2 3 5 7 7 8 9 11 13 15 16 17 17 19 18 19 18 20 19 20 20 21 22 23 23 25
10 9 7 3 7 1 4 5 4 3 4 4 4 4 3 3 4 5 4 4 4 4 2 2 4 5 5 6 7 10 12 15 16 17 19 20 19 18 20 22 22 22 19 19 20 23 24 27 25
17 9 14 9 19 11 5 3 6 6 4 4 5 3 3 5 6 5 4 3 3 4 4 5 6 7 8 8 8 10 14 15 16 18 18 18 19 19 19 20 22 23 23 23 23 22 22 22 26
10 16 19 15 15 15 10 8 11 9 7 2 3 3 2 4 8 7 7 4 2 4 5 5 7 8 9 11 12 13 15 17 17 18 19 20 18 18 18 18 20 22 25 27 27 29 29 27 26
13 12 15 9 14 25 17 16 11 14 11 9 4 2 1 3 5 7 7 4 4 5 7 9 10 10 12 12 14 16 18 19 20 20 20 20 19 19 20 20 22 24 25 27 29 31 31 31 32
13 16 13 13 18 14 20 20 13 9 16 19 10 6 3 2 5 5 5 8 9 8 9 10 11 11 13 14 15 16 19 21 24 25 24 23 22 23 22 22 23 25 26 28 30 30 30 31 34
22 20 16 13 17 22 17 33 21 13 14 21 18 13 7 5 2 5 7 7 7 7 8 10 12 14 15 15 16 17 19 21 23 25 26 26 26 26 25 24 26 28 28 29 32 35 34 31 34
19 21 20 19 20 16 20 13 25 14 25 24 33 17 11 7 5 4 7 8 9 9 9 10 12 14 15 16 19 18 19 21 23 26 27 27 28 27 27 27 28 29 29 31 31 33 35 33 32
22 15 19 20 22 19 19 22 30 21 25 25 16 24 14 10 9 8 9 12 13 13 12 12 13 15 18 20 20 20 21 24 25 28 29 28 28 29 29 30 30 31 32 33 34 34 36 38 35
18 17 19 21 20 22 22 20 28 31 16 18 25 12 12 16 16 14 14 13 16 16 16 16 17 18 20 21 22 24 24 26 27 28 29 29 29 30 28 31 33 33 34 34 35 37 37 42 40
19 17 17 17 17 17 16 22 21 24 18 11 21 26 25 25 24 21 22 20 20 22 21 23 22 21 22 23 23 25 25 26 28 30 31 32 32 33 33 33 35 35 36 36 38 39 39 41 42
25 19 16 11 7 11 14 18 12 20 17 25 9 16 28 21 21 18 21 22 20 26 29 28 28 26 25 25 25 27 29 29 30 31 34 34 35 36 36 36 37 37 37 38 40 40 40 42 43
24 25 18 16 14 13 15 15 15 20 18 24 35 36 33 26 25 21 27 30 25 24 30 29 28 27 27 26 27 27 29 31 34 35 35 36 37 37 38 39 39 38 39 40 42 43 42 43 45
21 11 20 20 19 17 14 18 20 22 24 28 22 24 19 23 27 21 24 29 21 23 28 26 26 26 29 29 29 29 30 32 33 35 35 36 37 37 39 39 38 39 40 42 43 43 42 45 48
22 23 21 15 15 11 11 24 22 24 26 23 21 24 22 19 23 20 21 27 19 19 22 25 28 29 32 32 33 33 34 36 37 35 35 36 36 38 40 40 40 41 42 43 44 45 46 48 48
22 26 20 20 22 22 19 13 17 22 25 24 29 30 25 20 23 24 24 28 23 23 26 26 29 31 33 34 35 35 36 38 39 38 37 37 37 38 40 41 42 43 44 43 45 47 49 50 51
Wind_Direction
78 76 84 71 62 77 81 100 90 92 101 90 49 204 57 61 82 86 89 106 102 104 106 111 116 117 119 121 121 123 119 122 119 126 141 140 136 124 110 114 119 143 157 145 127 114 109 121 129
86 79 82 77 93 310 115 111 90 102 114 119 114 68 77 65 92 92 92 95 99 103 105 107 107 109 118 114 114 122 123 120 122 122 129 126 119 115 119 122 127 158 149 149 153 142 131 140 137
103 103 80 58 89 47 92 87 89 105 104 108 97 92 91 85 94 98 94 92 94 94 96 99 103 110 112 116 113 112 118 118 122 124 129 131 134 142 163 171 159 103 116 136 162 161 148 149 150
118 91 83 194 233 103 71 95 99 99 104 100 99 94 87 91 94 104 104 103 102 103 104 102 106 112 117 136 141 135 135 129 118 133 145 154 159 177 188 192 99 68 61 106 137 163 164 163 164
95 95 98 95 81 81 108 98 106 109 114 112 109 109 101 94 97 103 103 95 96 96 95 87 93 94 109 94 114 113 94 83 95 109 180 196 197 197 171 29 15 10 26 33 65 114 194 183 184
94 59 52 29 72 94 44 100 103 111 113 112 108 105 104 99 98 111 110 102 102 104 98 90 86 89 58 115 114 57 20 360 354 344 311 296 273 267 291 342 15 17 349 357 355 354 298 231 210
108 98 105 139 128 74 118 8 97 96 101 104 106 104 103 103 108 112 108 106 103 102 100 91 84 82 75 66 82 64 39 19 3 335 330 311 296 298 299 307 318 342 360 338 338 291 268 271 247
89 63 11 91 63 322 71 6 88 102 96 91 87 93 93 88 89 93 96 104 112 112 115 102 91 88 83 75 78 75 56 40 17 5 354 342 346 333 326 327 329 319 331 328 319 320 298 269 267
9 58 28 120 140 346 35 86 190 94 98 97 91 85 84 83 77 74 78 78 85 77 81 90 75 69 80 56 63 54 52 26 340 323 320 312 312 335 334 323 316 310 327 325 322 314 302 300 295
107 48 72 87 64 276 157 200 23 26 100 98 90 82 88 90 83 81 71 74 69 82 79 72 58 69 73 80 43 37 32 10 320 296 293 301 305 288 305 310 306 305 312 316 308 301 298 294 288
54 190 192 231 110 276 20 198 208 174 130 115 103 90 98 95 100 94 98 86 85 84 74 64 54 52 47 35 20 5 360 358 358 352 347 337 324 336 328 300 303 311 316 318 304 295 286 280 277
338 143 210 222 192 161 206 230 303 85 111 116 113 100 101 121 118 114 109 110 105 69 43 17 13 9 1 353 348 342 345 342 341 334 337 338 334 330 328 326 323 320 312 306 306 300 300 294 286
126 205 138 115 101 221 274 232 29 79 59 82 124 122 117 119 125 127 128 137 147 196 324 336 344 337 338 330 334 336 336 337 332 332 332 325 326 326 330 326 320 319 312 306 303 297 294 291 292
216 183 107 193 203 242 173 111 61 78 76 41 49 146 151 148 147 135 132 132 144 180 226 287 310 316 326 335 334 334 333 326 334 329 326 322 323 321 319 315 319 322 322 315 307 296 295 295 288
211 181 163 180 139 37 49 132 316 7 79 71 62 113 122 130 134 110 87 77 125 145 83 325 318 340 350 354 344 341 338 335 332 331 328 327 324 327 324 318 317 316 312 308 307 305 302 301 288
185 174 160 226 302 180 186 242 233 239 159 111 89 66 68 71 75 66 61 54 51 51 39 360 351 342 344 356 347 342 337 339 336 332 332 330 329 333 331 333 330 331 325 316 311 303 299 296 293
169 183 218 231 275 297 286 192 234 216 206 128 106 78 49 33 21 28 12 25 28 26 8 355 342 339 338 342 342 341 335 342 339 338 339 338 335 338 337 337 337 336 334 330 326 318 311 301 296
182 218 231 254 295 308 300 317 290 234 246 344 109 86 41 9 1 5 354 9 26 12 13 360 344 348 337 339 341 341 342 343 341 341 341 341 339 341 336 340 337 339 333 329 326 323 320 316 309
206 211 231 215 271 296 307 284 301 302 259 276 295 163 115 344 354 355 351 357 14 16 13 6 345 335 331 332 337 339 340 341 343 343 344 343 340 339 335 341 340 337 333 328 328 323 318 315 312
192 230 227 225 249 269 270 298 271 302 292 283 268 252 267 344 342 345 346 354 7 12 5 353 346 340 335 335 335 338 338 338 338 338 341 344 338 340 339 339 337 335 334 332 329 327 319 312 304
204 213 219 219 227 244 256 272 259 215 286 303 296 275 256 275 316 326 337 342 338 338 339 337 339 338 337 333 331 333 338 335 332 331 334 336 335 335 336 335 335 334 333 332 332 330 327 320 310
211 231 195 215 243 253 284 271 296 232 295 284 303 266 264 273 278 285 299 302 303 302 308 318 323 325 325 329 327 326 326 329 332 332 331 329 329 330 328 329 330 331 328 327 327 330 327 324 316
223 220 212 219 232 246 248 269 275 237 276 307 284 293 256 260 268 264 277 279 281 287 292 300 310 316 318 321 323 324 322 324 326 328 328 327 325 324 323 321 322 325 327 326 326 321 324 323 322
181 213 220 225 239 242 248 239 240 280 257 276 276 236 276 273 258 265 272 279 281 284 290 296 302 306 307 313 318 321 323 320 318 318 320 321 323 321 317 315 315 318 320 320 320 321 321 319 318
199 211 213 232 240 247 239 247 254 282 266 285 274 271 305 285 263 259 267 270 277 286 289 295 295 301 302 303 309 311 312 316 314 312 314 317 319 320 318 313 312 313 314 315 317 318 316 315 314
213 202 209 216 242 264 248 244 258 256 278 282 302 296 284 280 271 275 277 281 281 289 290 293 296 295 299 298 301 306 310 312 313 310 311 313 313 314 314 312 310 310 310 312 312 313 312 309 310
223 202 209 226 261 250 241 277 258 269 263 261 260 258 261 268 272 281 285 288 292 291 290 295 295 295 295 297 297 301 307 312 313 311 309 310 310 312 315 314 313 310 310 310 311 312 309 309 307
213 240 220 210 238 238 239 259 268 262 271 286 275 256 254 271 277 288 287 284 292 286 289 293 295 296 298 301 300 302 303 308 311 311 310 308 310 313 314 313 312 309 309 309 308 308 310 307 305
219 216 221 216 223 231 251 251 241 249 258 259 271 278 249 240 270 278 285 287 295 291 290 292 296 297 300 303 305 307 308 310 312 313 311 308 311 313 313 313 312 311 312 310 310 311 310 309 306
217 230 220 211 221 225 225 245 258 263 270 280 295 296 291 258 263 277 280 283 290 290 288 290 293 296 299 302 304 305 309 314 315 314 311 310 312 313 313 314 314 313 312 311 313 314 310 307 300